Telluride, CO

4:19 AM MDT on March 28, 2017 (GMT -0600)
Telluride Regional

Weather History for KTEX - October, 2014

Change the Weather History Date:

Thursday, October 30, 2014

  Actual Average Record
Temperature  
Mean Temperature 48 °F -  
Max Temperature 62 °F 43 °F 62 °F (2014)
Min Temperature 35 °F 27 °F 14 °F (2004)
Degree Days  
Heating Degree Days 16    
Moisture  
Dew Point 17 °F    
Average Humidity 31    
Maximum Humidity 47    
Minimum Humidity 17    
Precipitation  
Precipitation 0.00 in - - ()
Sea Level Pressure  
Sea Level Pressure 30.46 in    
Wind  
Wind Speed 5 mph (SSE)    
Max Wind Speed 13 mph    
Max Gust Speed 17 mph    
Visibility 10 miles    
Events      
Averages and records for this station are not official NWS values.
T = Trace of Precipitation, MM = Missing Value Source: NWS Daily Summary

Daily Weather History Graph

Daily Weather History Graph

Search for Another Location

Airport or City:

Trip Planner

Search our weather history database for the weather conditions in past years. The results will help you decide how hot, cold, wet, or windy it might be!

Date:

Astronomy

Oct. 30, 2014 Rise Set
Actual Time 7:35 AM MDT 6:14 PM MDT
Civil Twilight 7:08 AM MDT 6:41 PM MDT
Nautical Twilight 6:37 AM MDT 7:12 PM MDT
Astronomical Twilight 6:06 AM MDT 7:43 PM MDT
Moon 1:40 PM MDT (10/30) No Moon Set
Length of Visible Light 11h 33m
Length of Day
10h 39m
Waxing Crescent, 46% of the Moon is Illuminated
Oct 30
Waxing Crescent
Oct 30
First Quarter
Nov 6
Full
Nov 14
Last Quarter
Nov 22
New

Hourly Weather History & Observations

Time (MDT) Temp. Windchill Dew Point Humidity Pressure Visibility Wind Dir Wind Speed Gust Speed Precip Events Conditions
12:15 AM 37.6 °F - 12.4 °F 36% 30.47 in 10.0 mi Calm Calm - N/A   Clear
12:35 AM 37.4 °F 34.9 °F 12.2 °F 36% 30.47 in 10.0 mi ESE 3.5 mph - N/A   Clear
12:55 AM 36.7 °F 32.0 °F 11.8 °F 36% 30.47 in 10.0 mi SE 5.8 mph - N/A   Clear
1:15 AM 36.9 °F 33.1 °F 11.1 °F 35% 30.47 in 10.0 mi ESE 4.6 mph - N/A   Clear
1:35 AM 36.3 °F 32.5 °F 12.7 °F 38% 30.47 in 10.0 mi SE 4.6 mph - N/A   Clear
1:55 AM 36.5 °F 31.8 °F 13.1 °F 38% 30.47 in 10.0 mi SE 5.8 mph - N/A   Clear
2:15 AM 36.5 °F 31.0 °F 10.2 °F 34% 30.48 in 10.0 mi ESE 6.9 mph - N/A   Clear
2:35 AM 36.9 °F 32.2 °F 9.0 °F 32% 30.48 in 10.0 mi ESE 5.8 mph - N/A   Clear
2:55 AM 35.8 °F - 10.9 °F 36% 30.48 in 10.0 mi Calm Calm - N/A   Clear
3:15 AM 35.8 °F 30.9 °F 10.8 °F 36% 30.48 in 10.0 mi ESE 5.8 mph - N/A   Clear
3:35 AM 36.1 °F 29.9 °F 12.6 °F 38% 30.47 in 10.0 mi SE 8.1 mph - N/A   Clear
3:55 AM 35.8 °F 28.8 °F 10.8 °F 36% 30.47 in 10.0 mi ESE 9.2 mph - N/A   Clear
4:15 AM 35.8 °F 31.9 °F 11.3 °F 36% 30.47 in 10.0 mi SE 4.6 mph - N/A   Clear
4:35 AM 36.5 °F 31.0 °F 12.2 °F 37% 30.46 in 10.0 mi ESE 6.9 mph - N/A   Clear
4:55 AM 36.0 °F 31.1 °F 12.4 °F 38% 30.47 in 10.0 mi SE 5.8 mph - N/A   Clear
5:15 AM 36.9 °F 32.2 °F 12.0 °F 36% 30.47 in 10.0 mi SE 5.8 mph - N/A   Clear
5:35 AM 36.0 °F 31.1 °F 12.2 °F 38% 30.47 in 10.0 mi ESE 5.8 mph - N/A   Clear
5:55 AM 36.7 °F 34.1 °F 12.0 °F 36% 30.47 in 10.0 mi East 3.5 mph - N/A   Clear
6:15 AM 35.2 °F 31.2 °F 13.5 °F 41% 30.47 in 10.0 mi ESE 4.6 mph - N/A   Clear
6:35 AM 35.8 °F 31.9 °F 14.9 °F 43% 30.47 in 10.0 mi SE 4.6 mph - N/A   Clear
6:55 AM 36.3 °F 32.5 °F 13.1 °F 39% 30.47 in 10.0 mi ESE 4.6 mph - N/A   Clear
7:15 AM 36.9 °F 32.2 °F 15.8 °F 42% 30.48 in 10.0 mi ESE 5.8 mph - N/A   Clear
7:35 AM 36.0 °F - 16.5 °F 45% 30.48 in 10.0 mi Calm Calm - N/A   Clear
7:55 AM 35.1 °F 30.1 °F 16.7 °F 47% 30.48 in 10.0 mi ESE 5.8 mph - N/A   Clear
8:15 AM 37.0 °F 32.4 °F 18.3 °F 47% 30.49 in 10.0 mi ESE 5.8 mph - N/A   Clear
8:35 AM 39.4 °F 36.1 °F 19.4 °F 45% 30.50 in 10.0 mi ESE 4.6 mph - N/A   Clear
8:55 AM 40.6 °F 37.5 °F 19.9 °F 44% 30.50 in 10.0 mi ESE 4.6 mph - N/A   Clear
9:15 AM 43.2 °F - 21.2 °F 42% 30.50 in 10.0 mi Calm Calm - N/A   Clear
9:35 AM 45.9 °F 44.6 °F 22.1 °F 39% 30.50 in 10.0 mi ESE 3.5 mph - N/A   Clear
9:55 AM 46.4 °F - 22.5 °F 39% 30.50 in 10.0 mi Calm Calm - N/A   Clear
10:15 AM 50.0 °F - 21.0 °F 32% 30.50 in 10.0 mi Calm Calm - N/A   Clear
10:35 AM 51.8 °F - 22.5 °F 32% 30.49 in 10.0 mi Calm Calm - N/A   Clear
10:55 AM 53.1 °F - 23.2 °F 31% 30.49 in 10.0 mi Calm Calm - N/A   Clear
11:15 AM 55.6 °F - 22.8 °F 28% 30.49 in 10.0 mi Calm Calm - N/A   Clear
11:35 AM 56.5 °F - 22.5 °F 27% 30.49 in 10.0 mi Calm Calm - N/A   Clear
11:55 AM 58.5 °F - 21.7 °F 24% 30.48 in 10.0 mi West 5.8 mph - N/A   Clear
12:15 PM 59.4 °F - 21.4 °F 23% 30.48 in 10.0 mi West 4.6 mph - N/A   Clear
12:35 PM 59.9 °F - 20.3 °F 22% 30.47 in 10.0 mi West 5.8 mph - N/A   Clear
12:55 PM 60.3 °F - 18.7 °F 20% 30.46 in 10.0 mi West 6.9 mph - N/A   Clear
1:15 PM 61.5 °F - 15.6 °F 17% 30.45 in 10.0 mi WSW 8.1 mph - N/A   Clear
1:35 PM 61.3 °F - 16.2 °F 17% 30.45 in 10.0 mi WSW 11.5 mph - N/A   Clear
1:55 PM 61.9 °F - 16.5 °F 17% 30.44 in 10.0 mi WSW 12.7 mph - N/A   Clear
2:15 PM 62.1 °F - 15.8 °F 17% 30.44 in 10.0 mi WSW 10.4 mph - N/A   Clear
2:35 PM 61.7 °F - 16.9 °F 18% 30.44 in 10.0 mi WSW 10.4 mph - N/A   Clear
2:55 PM 61.9 °F - 17.1 °F 18% 30.44 in 10.0 mi West 9.2 mph - N/A   Clear
3:15 PM 62.1 °F - 17.1 °F 18% 30.44 in 10.0 mi WSW 9.2 mph - N/A   Clear
3:35 PM 62.1 °F - 17.8 °F 18% 30.44 in 10.0 mi West 9.2 mph - N/A   Clear
3:55 PM 62.1 °F - 16.9 °F 17% 30.43 in 10.0 mi West 10.4 mph 17.3 mph N/A   Clear
4:15 PM 61.5 °F - 19.4 °F 20% 30.43 in 10.0 mi West 11.5 mph - N/A   Clear
4:35 PM 61.3 °F - 19.4 °F 20% 30.43 in 10.0 mi West 10.4 mph - N/A   Clear
4:55 PM 60.8 °F - 19.2 °F 20% 30.44 in 10.0 mi West 12.7 mph - N/A   Clear
5:15 PM 60.1 °F - 19.0 °F 20% 30.43 in 10.0 mi West 9.2 mph - N/A   Clear
5:35 PM 59.4 °F - 19.4 °F 21% 30.43 in 10.0 mi West 9.2 mph - N/A   Clear
5:55 PM 58.3 °F - 19.4 °F 22% 30.43 in 10.0 mi WSW 6.9 mph - N/A   Clear
6:15 PM 55.8 °F - 19.4 °F 24% 30.44 in 10.0 mi WSW 5.8 mph - N/A   Clear
6:35 PM 54.1 °F - 19.0 °F 25% 30.44 in 10.0 mi South 3.5 mph - N/A   Clear
6:55 PM 54.0 °F - 19.2 °F 26% 30.44 in 10.0 mi Calm Calm - N/A   Clear
7:15 PM 51.3 °F - 19.2 °F 28% 30.45 in 10.0 mi East 8.1 mph - N/A   Clear
7:35 PM 49.5 °F - 19.2 °F 30% 30.45 in 10.0 mi ESE 8.1 mph - N/A   Clear
7:55 PM 50.2 °F - 18.7 °F 29% 30.45 in 10.0 mi SE 5.8 mph - N/A   Clear
8:15 PM 47.7 °F - 19.4 °F 33% 30.46 in 10.0 mi SE 6.9 mph - N/A   Clear
8:35 PM 47.5 °F - 18.3 °F 31% 30.46 in 10.0 mi SE 5.8 mph - N/A   Clear
8:55 PM 45.9 °F 42.3 °F 18.3 °F 33% 30.46 in 10.0 mi ESE 6.9 mph - N/A   Clear
9:15 PM 45.5 °F 41.8 °F 18.3 °F 34% 30.46 in 10.0 mi SE 6.9 mph - N/A   Clear
9:35 PM 45.3 °F 41.6 °F 18.3 °F 34% 30.46 in 10.0 mi ESE 6.9 mph - N/A   Clear
9:55 PM 44.4 °F 40.5 °F 18.7 °F 36% 30.46 in 10.0 mi SE 6.9 mph - N/A   Clear
10:15 PM 44.6 °F 40.2 °F 18.3 °F 35% 30.46 in 10.0 mi SE 8.1 mph - N/A   Clear
10:35 PM 43.9 °F 39.3 °F 18.3 °F 36% 30.46 in 10.0 mi SE 8.1 mph - N/A   Clear
10:55 PM 44.2 °F 41.0 °F 17.8 °F 35% 30.46 in 10.0 mi ESE 5.8 mph - N/A   Clear
11:15 PM 44.4 °F 40.5 °F 17.4 °F 34% 30.45 in 10.0 mi ESE 6.9 mph - N/A   Clear
11:35 PM 43.7 °F 39.7 °F 17.1 °F 34% 30.44 in 10.0 mi SE 6.9 mph - N/A   Clear
11:55 PM 43.5 °F 40.1 °F 16.7 °F 34% 30.44 in 10.0 mi SE 5.8 mph - N/A   Clear